Regional Weather Roundup
Issued by NWS

Home | Current Version | Previous Version | Text Only | Print | Product List | Glossary On
Versions: 1 2 3 4 5 6 7 8 9 10 11 12 13 14 15 16 17 18 19 20 21 22 23 24 25 26 27 28 29 30 31 32 33 34 35 36 37 38 39 40 41 42 43 44 45 46 47 48 49 50
000
ASUS43 KLSX 270959
RWRMO

WEATHER SUMMARY FOR MISSOURI
NATIONAL WEATHER SERVICE SPRINGFIELD MO
500 AM CDT MON APR 27 2015

NOTE: "FAIR" INDICATES FEW OR NO CLOUDS BELOW 12,000 FEET WITH NO
       SIGNIFICANT WEATHER AND/OR OBSTRUCTIONS TO VISIBILITY.
       CURRENT SKY AND/OR WEATHER CONDITIONS ARE NOT AVAILABLE FOR
       CHILLICOTHE AND FARMINGTON.

MOZ001>031-035>038-043-044-053-054-271100-
...NORTHERN AND WESTERN MISSOURI...

CITY           SKY/WX    TMP DP  RH WIND       PRES   REMARKS
KANSAS CTY INT MOCLDY    44  36  73 NE8       30.06S
KANSAS C DTWN  MOCLDY    46  36  68 NE7       30.05S
LEE`S SUMMIT   CLOUDY    47  36  65 NE9       30.05R
ST JOSEPH      PTCLDY    46  33  60 E6        30.09S
CHILLICOTHE      N/A     39  36  89 CALM      30.10S
KIRKSVILLE     CLEAR     35  34  96 N5        30.10R

$$
MOZ066>068-077>081-088>096-101>105-271100-
...SOUTHWEST MISSOURI...

CITY           SKY/WX    TMP DP  RH WIND       PRES   REMARKS
SPRINGFIELD    CLOUDY    48  36  63 E9        30.00R
JOPLIN         CLOUDY    47  41  80 NE5       30.02R

$$
MOZ032>034-039>042-045>050-055>058-069>072-271100-
...CENTRAL MISSOURI...

CITY           SKY/WX    TMP DP  RH WIND       PRES   REMARKS
COLUMBIA       MOCLDY    42  36  79 NE7       30.05R
JEFFERSON CITY CLOUDY    44  36  73 NE5       30.05R
ROLLA          CLOUDY    45  34  65 NE12      30.00R
SEDALIA        CLOUDY    45  36  70 NE8       30.05S
OSAGE BEACH    CLOUDY    45  34  65 E5        30.02S

$$
MOZ051-052-059>065-271100-
...EAST CENTRAL MISSOURI...

CITY           SKY/WX    TMP DP  RH WIND       PRES   REMARKS
ST LOUIS INTL  PTCLDY    43  33  68 CALM      30.05S
SPIRIT OF STL  PTCLDY    38  36  92 CALM      30.04S
ST CHARLES     PTCLDY    41  36  82 NW3       30.05S

$$
MOZ072>076-082>087-097>100-106>115-271100-
...SOUTH CENTRAL AND SOUTHEAST MISSOURI...

CITY           SKY/WX    TMP DP  RH WIND       PRES   REMARKS
CAPE GIRARDEAU CLEAR     45  35  68 NE9       29.99R
FARMINGTON     MOCLDY    43  34  70 NE8       30.04S
POPLAR BLUFF   PTCLDY    48  36  63 NE10      29.97R
WEST PLAINS    CLOUDY    45  35  68 NE8       30.00R

$$



USA.gov is the U.S. government's official web portal to all federal, state and local government web resources and services.